Station Historical Data
Daily Summary for January 8, 2017 Units:  Metric    English   Both
« Previous Day
Next Day »
Daily Weekly Monthly Yearly Custom
  High: Low: Average:
Temperature: -8 °C -11.6 °C -10.2 °C
Dew Point: -11.7 °C -17.3 °C -14.9 °C
Humidity: 81% 56% 69%
Wind Speed: 27.4km/h 1.6km/h 10km/h
Wind Gust: 43.5km/h - -
Wind- - West
Pressure: 1038.1 hPa 1024.3 hPa -
Precipitation: 0 mm    
Historical Graphs
 
 
Tabular Data for January 8, 2017
Time Temperature Dew Point Pressure Wind Wind Speed Wind Gust Humidity Rainfall Rate (Hourly)
00:04 -11.3 °C -16 °C 1026 hPa West 9.7 km/h 22.5 km/h 68% 0 mm
00:09 -11.3 °C -16 °C 1026 hPa West 11.3 km/h 20.9 km/h 68% 0 mm
00:14 -11.3 °C -16.2 °C 1026 hPa West 9.7 km/h 20.9 km/h 67% 0 mm
00:19 -11.3 °C -16.2 °C 1025.6 hPa West 9.7 km/h 19.3 km/h 67% 0 mm
00:24 -11.2 °C -16.1 °C 1025.6 hPa WSW 20.9 km/h 20.9 km/h 67% 0 mm
00:29 -11.2 °C -16.1 °C 1025.6 hPa West 9.7 km/h 24.1 km/h 67% 0 mm
00:34 -11.1 °C -16.1 °C 1025.6 hPa West 11.3 km/h 25.7 km/h 67% 0 mm
00:39 -11.2 °C -16.1 °C 1025.6 hPa West 11.3 km/h 25.7 km/h 67% 0 mm
00:44 -11.1 °C -16.1 °C 1025.3 hPa West 11.3 km/h 22.5 km/h 67% 0 mm
00:49 -11.2 °C -16.1 °C 1025.3 hPa West 11.3 km/h 22.5 km/h 67% 0 mm
00:54 -11.3 °C -16.2 °C 1025.3 hPa West 11.3 km/h 22.5 km/h 67% 0 mm
00:59 -11.3 °C -16.2 °C 1025.3 hPa WSW 3.2 km/h 19.3 km/h 67% 0 mm
01:05 -11.3 °C -16.2 °C 1025.3 hPa West 9.7 km/h 20.9 km/h 67% 0 mm
01:10 -11.4 °C -16.3 °C 1025.3 hPa West 11.3 km/h 20.9 km/h 67% 0 mm
01:15 -11.4 °C -16.3 °C 1025.3 hPa West 8 km/h 22.5 km/h 67% 0 mm
01:20 -11.4 °C -16.3 °C 1025.3 hPa West 9.7 km/h 24.1 km/h 67% 0 mm
01:25 -11.4 °C -16.3 °C 1024.9 hPa West 9.7 km/h 24.1 km/h 67% 0 mm
01:30 -11.4 °C -16.3 °C 1024.9 hPa West 8 km/h 22.5 km/h 67% 0 mm
01:35 -11.6 °C -16.3 °C 1024.9 hPa WNW 8 km/h 16.1 km/h 68% 0 mm
01:40 -11.6 °C -16.3 °C 1024.9 hPa WSW 3.2 km/h 14.5 km/h 68% 0 mm
01:45 -11.5 °C -16.2 °C 1024.9 hPa West 6.4 km/h 22.5 km/h 68% 0 mm
01:50 -11.6 °C -16.3 °C 1024.9 hPa West 12.9 km/h 12.9 km/h 68% 0 mm
01:55 -11.6 °C -16.1 °C 1024.9 hPa West 9.7 km/h 22.5 km/h 69% 0 mm
02:00 -11.6 °C -16.1 °C 1024.9 hPa West 9.7 km/h 22.5 km/h 69% 0 mm
02:05 -11.5 °C -16.1 °C 1024.9 hPa West 9.7 km/h 19.3 km/h 69% 0 mm
02:10 -11.4 °C -16 °C 1024.9 hPa West 11.3 km/h 19.3 km/h 69% 0 mm
02:15 -11.4 °C -16 °C 1024.9 hPa West 11.3 km/h 32.2 km/h 69% 0 mm
02:20 -11.3 °C -15.9 °C 1024.9 hPa West 9.7 km/h 19.3 km/h 69% 0 mm
02:25 -11.3 °C -15.9 °C 1024.9 hPa West 11.3 km/h 20.9 km/h 69% 0 mm
02:30 -11.3 °C -15.8 °C 1024.9 hPa West 9.7 km/h 20.9 km/h 69% 0 mm
02:35 -11.3 °C -15.8 °C 1025.3 hPa West 12.9 km/h 17.7 km/h 69% 0 mm
02:40 -11.3 °C -15.8 °C 1025.3 hPa West 9.7 km/h 22.5 km/h 69% 0 mm
02:45 -11.3 °C -15.7 °C 1025.3 hPa WNW 19.3 km/h 25.7 km/h 70% 0 mm
02:50 -11.2 °C -15.7 °C 1025.3 hPa West 16.1 km/h 27.4 km/h 69% 0 mm
02:55 -11.1 °C -15.6 °C 1025.3 hPa West 14.5 km/h 32.2 km/h 69% 0 mm
03:00 -11.1 °C -15.6 °C 1025.3 hPa West 8 km/h 20.9 km/h 69% 0 mm
03:05 -11 °C -15.6 °C 1024.9 hPa West 11.3 km/h 25.7 km/h 69% 0 mm
03:10 -10.9 °C -15.7 °C 1024.9 hPa West 11.3 km/h 29 km/h 68% 0 mm
03:15 -10.8 °C -15.6 °C 1024.9 hPa WSW 12.9 km/h 29 km/h 68% 0 mm
03:20 -10.7 °C -15.4 °C 1024.9 hPa West 12.9 km/h 24.1 km/h 68% 0 mm
03:25 -10.5 °C -15.3 °C 1024.9 hPa West 12.9 km/h 27.4 km/h 68% 0 mm
03:30 -10.4 °C -15.2 °C 1024.6 hPa West 12.9 km/h 29 km/h 68% 0 mm
03:35 -10.3 °C -15.1 °C 1024.6 hPa West 12.9 km/h 29 km/h 68% 0 mm
03:40 -10.3 °C -15.1 °C 1024.6 hPa WNW 17.7 km/h 22.5 km/h 68% 0 mm
03:45 -10.3 °C -14.9 °C 1024.6 hPa WSW 9.7 km/h 35.4 km/h 69% 0 mm
03:50 -10.3 °C -14.7 °C 1024.6 hPa WSW 12.9 km/h 25.7 km/h 70% 0 mm
03:55 -10.3 °C -14.6 °C 1024.6 hPa WNW 22.5 km/h 27.4 km/h 71% 0 mm
04:00 -10.3 °C -14.4 °C 1024.6 hPa NW 27.4 km/h 30.6 km/h 72% 0 mm
04:05 -10.3 °C -14.2 °C 1024.3 hPa WNW 9.7 km/h 30.6 km/h 73% 0 mm
04:10 -10.2 °C -14.2 °C 1024.3 hPa West 16.1 km/h 30.6 km/h 73% 0 mm
04:15 -10.2 °C -14.2 °C 1024.6 hPa West 16.1 km/h 30.6 km/h 73% 0 mm
04:20 -10.3 °C -14.2 °C 1024.3 hPa West 16.1 km/h 33.8 km/h 73% 0 mm
04:25 -10.3 °C -14.2 °C 1024.3 hPa West 14.5 km/h 33.8 km/h 73% 0 mm
04:30 -10.4 °C -14.1 °C 1024.6 hPa West 17.7 km/h 27.4 km/h 74% 0 mm
04:35 -10.4 °C -14.2 °C 1024.6 hPa WSW 9.7 km/h 27.4 km/h 74% 0 mm
04:40 -10.6 °C -14.3 °C 1024.6 hPa West 12.9 km/h 27.4 km/h 74% 0 mm
04:45 -10.6 °C -14.3 °C 1024.6 hPa West 14.5 km/h 30.6 km/h 74% 0 mm
04:50 -10.7 °C -14.2 °C 1024.6 hPa West 14.5 km/h 30.6 km/h 75% 0 mm
04:54 -10.7 °C -14.3 °C 1024.6 hPa West 14.5 km/h 33.8 km/h 75% 0 mm
04:59 -10.7 °C -14.1 °C 1024.9 hPa West 12.9 km/h 29 km/h 76% 0 mm
05:05 -10.7 °C -14.1 °C 1024.9 hPa WSW 22.5 km/h 32.2 km/h 76% 0 mm
05:09 -10.8 °C -14.2 °C 1024.9 hPa West 17.7 km/h 32.2 km/h 76% 0 mm
05:15 -10.7 °C -14.1 °C 1024.9 hPa West 14.5 km/h 30.6 km/h 76% 0 mm
05:20 -10.7 °C -13.9 °C 1024.9 hPa West 16.1 km/h 30.6 km/h 77% 0 mm
05:25 -10.7 °C -13.9 °C 1024.9 hPa West 14.5 km/h 30.6 km/h 77% 0 mm
05:30 -10.7 °C -13.9 °C 1025.3 hPa West 17.7 km/h 27.4 km/h 77% 0 mm
05:35 -10.7 °C -14.1 °C 1024.9 hPa WSW 12.9 km/h 27.4 km/h 76% 0 mm
05:40 -10.7 °C -14.1 °C 1025.3 hPa WSW 20.9 km/h 22.5 km/h 76% 0 mm
05:45 -10.7 °C -14.1 °C 1025.3 hPa WNW 8 km/h 22.5 km/h 76% 0 mm
05:50 -10.7 °C -14.1 °C 1025.3 hPa West 12.9 km/h 27.4 km/h 76% 0 mm
05:55 -10.6 °C -13.9 °C 1025.3 hPa West 14.5 km/h 32.2 km/h 76% 0 mm
05:59 -10.6 °C -14 °C 1025.6 hPa West 14.5 km/h 25.7 km/h 76% 0 mm
06:04 -10.6 °C -13.9 °C 1025.6 hPa North 8 km/h 20.9 km/h 77% 0 mm
06:09 -10.6 °C -13.7 °C 1026 hPa NW 12.9 km/h 22.5 km/h 78% 0 mm
06:14 -10.5 °C -13.6 °C 1026 hPa WNW 11.3 km/h 29 km/h 78% 0 mm
06:20 -10.4 °C -13.6 °C 1026 hPa WNW 11.3 km/h 29 km/h 78% 0 mm
06:25 -10.4 °C -13.6 °C 1026 hPa WNW 8 km/h 27.4 km/h 78% 0 mm
06:30 -10.4 °C -13.5 °C 1026.3 hPa West 12.9 km/h 22.5 km/h 78% 0 mm
06:35 -10.3 °C -13.4 °C 1026.3 hPa WNW 20.9 km/h 24.1 km/h 78% 0 mm
06:40 -10.4 °C -13.5 °C 1026.3 hPa WNW 11.3 km/h 24.1 km/h 78% 0 mm
06:45 -10.4 °C -13.3 °C 1026.6 hPa WNW 12.9 km/h 20.9 km/h 79% 0 mm
06:49 -10.4 °C -13.4 °C 1026.6 hPa West 9.7 km/h 20.9 km/h 79% 0 mm
06:55 -10.4 °C -13.4 °C 1026.6 hPa West 9.7 km/h 19.3 km/h 79% 0 mm
07:00 -10.6 °C -13.5 °C 1027 hPa West 9.7 km/h 19.3 km/h 79% 0 mm
07:05 -10.6 °C -13.3 °C 1027 hPa West 6.4 km/h 16.1 km/h 80% 0 mm
07:10 -10.6 °C -13.6 °C 1027 hPa WSW 6.4 km/h 17.7 km/h 79% 0 mm
07:15 -10.7 °C -13.4 °C 1027 hPa West 6.4 km/h 17.7 km/h 80% 0 mm
07:19 -10.6 °C -13.4 °C 1027.3 hPa West 4.8 km/h 16.1 km/h 80% 0 mm
07:24 -10.5 °C -13.3 °C 1027.3 hPa WSW 4.8 km/h 17.7 km/h 80% 0 mm
07:29 -10.4 °C -13.4 °C 1027.3 hPa West 6.4 km/h 14.5 km/h 79% 0 mm
07:35 -10.4 °C -13.4 °C 1027.3 hPa West 3.2 km/h 14.5 km/h 79% 0 mm
07:40 -10.4 °C -13.3 °C 1027.3 hPa WSW 9.7 km/h 14.5 km/h 79% 0 mm
07:45 -10.4 °C -13.3 °C 1027.3 hPa WNW 8 km/h 12.9 km/h 79% 0 mm
07:49 -10.3 °C -13.3 °C 1027.3 hPa WSW 8 km/h 14.5 km/h 79% 0 mm
07:55 -10.2 °C -13.2 °C 1027.3 hPa WSW 8 km/h 20.9 km/h 79% 0 mm
08:00 -10.3 °C -13.2 °C 1027.3 hPa WSW 8 km/h 14.5 km/h 79% 0 mm
08:04 -10.2 °C -13.3 °C 1027.7 hPa West 6.4 km/h 14.5 km/h 78% 0 mm
08:10 -10.2 °C -13.6 °C 1027.7 hPa West 8 km/h 17.7 km/h 76% 0 mm
08:15 -10 °C -13.6 °C 1027.7 hPa SW 4.8 km/h 19.3 km/h 75% 0 mm
09:30 -8.8 °C -13.7 °C 1029 hPa West 12.9 km/h 29 km/h 68% 0 mm
09:40 -8.6 °C -13.8 °C 1029 hPa West 16.1 km/h 32.2 km/h 66% 0 mm
09:45 -8.7 °C -13.9 °C 1029 hPa WNW 12.9 km/h 30.6 km/h 66% 0 mm
09:50 -8.8 °C -13.8 °C 1029.3 hPa West 8 km/h 32.2 km/h 67% 0 mm
09:54 -8.9 °C -13.2 °C 1029.3 hPa WNW 17.7 km/h 24.1 km/h 71% 0 mm
09:59 -9.1 °C -13.3 °C 1029.3 hPa WNW 14.5 km/h 27.4 km/h 71% 0 mm
10:04 -9.1 °C -13.8 °C 1029.7 hPa NW 16.1 km/h 25.7 km/h 69% 0 mm
10:09 -9 °C -14.2 °C 1029.7 hPa WNW 14.5 km/h 30.6 km/h 66% 0 mm
10:14 -9.1 °C -14.8 °C 1029.7 hPa West 12.9 km/h 43.5 km/h 63% 0 mm
10:19 -9.2 °C -14.7 °C 1029.7 hPa NNW 6.4 km/h 24.1 km/h 64% 0 mm
10:24 -8.9 °C -13.8 °C 1029.7 hPa WNW 12.9 km/h 24.1 km/h 68% 0 mm
10:30 -8.7 °C -13.9 °C 1029.7 hPa WNW 14.5 km/h 22.5 km/h 66% 0 mm
10:34 -8.4 °C -14.4 °C 1029.7 hPa WNW 12.9 km/h 24.1 km/h 62% 0 mm
10:40 -8.4 °C -14.6 °C 1030 hPa NNE 19.3 km/h 33.8 km/h 61% 0 mm
10:45 -8.4 °C -15 °C 1030 hPa WNW 16.1 km/h 33.8 km/h 59% 0 mm
10:50 -8.6 °C -14.9 °C 1030 hPa WSW 11.3 km/h 25.7 km/h 60% 0 mm
10:55 -8.3 °C -14.3 °C 1030 hPa North 6.4 km/h 29 km/h 62% 0 mm
10:59 -8.3 °C -14.9 °C 1030 hPa WNW 16.1 km/h 37 km/h 59% 0 mm
11:05 -8.5 °C -15.1 °C 1030 hPa West 16.1 km/h 37 km/h 59% 0 mm
11:09 -8.6 °C -14.8 °C 1030.4 hPa West 20.9 km/h 30.6 km/h 61% 0 mm
11:14 -8.6 °C -14.6 °C 1030.4 hPa NW 6.4 km/h 24.1 km/h 62% 0 mm
11:19 -8.7 °C -14.4 °C 1030.4 hPa West 4.8 km/h 27.4 km/h 63% 0 mm
11:24 -8.7 °C -13.9 °C 1030.4 hPa NNW 8 km/h 19.3 km/h 66% 0 mm
11:29 -8.9 °C -13.1 °C 1030.4 hPa NW 12.9 km/h 25.7 km/h 72% 0 mm
11:34 -9 °C -12.9 °C 1030.4 hPa WNW 12.9 km/h 20.9 km/h 73% 0 mm
11:39 -8.9 °C -13 °C 1030.4 hPa WNW 9.7 km/h 20.9 km/h 72% 0 mm
11:44 -8.7 °C -13.9 °C 1030.4 hPa WNW 9.7 km/h 22.5 km/h 66% 0 mm
11:50 -8.1 °C -13.3 °C 1030.7 hPa WNW 9.7 km/h 29 km/h 66% 0 mm
11:54 -8.2 °C -13.4 °C 1030.7 hPa NW 9.7 km/h 29 km/h 66% 0 mm
12:00 -8.6 °C -13.8 °C 1030.7 hPa WNW 9.7 km/h 20.9 km/h 66% 0 mm
12:05 -8.7 °C -13.9 °C 1030.7 hPa WNW 16.1 km/h 25.7 km/h 66% 0 mm
12:09 -8.7 °C -13.9 °C 1030.7 hPa WNW 11.3 km/h 25.7 km/h 66% 0 mm
12:14 -8.7 °C -14.1 °C 1031 hPa NNE 3.2 km/h 22.5 km/h 65% 0 mm
12:19 -8.7 °C -13.6 °C 1031 hPa North 11.3 km/h 20.9 km/h 68% 0 mm
12:24 -8.6 °C -13.3 °C 1031 hPa WNW 6.4 km/h 20.9 km/h 69% 0 mm
12:29 -8.8 °C -13.1 °C 1031 hPa WNW 24.1 km/h 24.1 km/h 71% 0 mm
12:34 -8.9 °C -12.7 °C 1031.4 hPa NW 8 km/h 24.1 km/h 74% 0 mm
12:39 -9.3 °C -12.7 °C 1031.4 hPa NW 9.7 km/h 24.1 km/h 76% 0 mm
12:44 -8.8 °C -12.2 °C 1031.4 hPa NW 8 km/h 16.1 km/h 76% 0 mm
12:49 -8 °C -12.2 °C 1031.7 hPa WNW 8 km/h 25.7 km/h 72% 0 mm
12:54 -8.4 °C -12.4 °C 1031.7 hPa WNW 9.7 km/h 25.7 km/h 73% 0 mm
12:59 -8.7 °C -12.7 °C 1031.7 hPa NW 8 km/h 20.9 km/h 73% 0 mm
13:05 -8.7 °C -12.4 °C 1031.7 hPa NW 16.1 km/h 20.9 km/h 74% 0 mm
13:10 -9 °C -12.6 °C 1031.7 hPa WNW 6.4 km/h 24.1 km/h 75% 0 mm
13:14 -9.2 °C -12.9 °C 1031.7 hPa WNW 9.7 km/h 24.1 km/h 74% 0 mm
13:19 -9.2 °C -12.7 °C 1032.1 hPa NW 4.8 km/h 19.3 km/h 76% 0 mm
13:24 -9.3 °C -12.7 °C 1032.1 hPa WNW 11.3 km/h 22.5 km/h 76% 0 mm
13:29 -9.4 °C -12.4 °C 1032.1 hPa NW 3.2 km/h 17.7 km/h 79% 0 mm
13:34 -9.2 °C -12.2 °C 1032.1 hPa WSW 8 km/h 16.1 km/h 79% 0 mm
13:39 -8.6 °C -11.7 °C 1032.1 hPa NW 6.4 km/h 16.1 km/h 78% 0 mm
13:44 -8.6 °C -11.7 °C 1032.1 hPa NW 6.4 km/h 16.1 km/h 78% 0 mm
13:49 -8.8 °C -12.3 °C 1032.4 hPa NNW 8 km/h 22.5 km/h 76% 0 mm
13:54 -9.4 °C -12.3 °C 1032.4 hPa NW 9.7 km/h 22.5 km/h 79% 0 mm
13:59 -9.6 °C -12.2 °C 1032.4 hPa WNW 9.7 km/h 22.5 km/h 81% 0 mm
14:04 -9.4 °C -12.3 °C 1032.4 hPa NW 8 km/h 16.1 km/h 80% 0 mm
14:09 -9.1 °C -12.2 °C 1032.7 hPa WNW 6.4 km/h 12.9 km/h 78% 0 mm
14:14 -9.3 °C -12.4 °C 1032.7 hPa West 12.9 km/h 17.7 km/h 78% 0 mm
14:19 -9.4 °C -12.6 °C 1032.7 hPa WNW 9.7 km/h 22.5 km/h 78% 0 mm
14:24 -9.3 °C -12.8 °C 1032.7 hPa WNW 9.7 km/h 27.4 km/h 76% 0 mm
14:29 -9.3 °C -13.4 °C 1032.7 hPa West 9.7 km/h 25.7 km/h 72% 0 mm
14:34 -9.3 °C -14 °C 1032.7 hPa West 11.3 km/h 19.3 km/h 69% 0 mm
14:39 -9.1 °C -14.3 °C 1033.1 hPa NNW 8 km/h 17.7 km/h 66% 0 mm
14:44 -9.1 °C -14.7 °C 1033.1 hPa NW 12.9 km/h 27.4 km/h 64% 0 mm
14:49 -8.9 °C -14.7 °C 1033.1 hPa NW 9.7 km/h 27.4 km/h 63% 0 mm
14:54 -8.8 °C -14.7 °C 1033.1 hPa NW 9.7 km/h 24.1 km/h 62% 0 mm
14:59 -8.6 °C -14.7 °C 1033.4 hPa NW 11.3 km/h 25.7 km/h 61% 0 mm
15:04 -8.4 °C -14.4 °C 1033.4 hPa WNW 11.3 km/h 25.7 km/h 62% 0 mm
15:09 -8.5 °C -14.7 °C 1033.4 hPa NNW 11.3 km/h 24.1 km/h 61% 0 mm
15:14 -8.8 °C -14.9 °C 1033.4 hPa NW 8 km/h 25.7 km/h 61% 0 mm
15:19 -8.7 °C -15.4 °C 1033.7 hPa NW 14.5 km/h 24.1 km/h 58% 0 mm
15:24 -8.7 °C -15.3 °C 1033.7 hPa WNW 11.3 km/h 24.1 km/h 59% 0 mm
15:29 -9.1 °C -15.4 °C 1033.7 hPa NW 11.3 km/h 22.5 km/h 60% 0 mm
15:34 -9.2 °C -15.7 °C 1033.7 hPa WNW 9.7 km/h 19.3 km/h 59% 0 mm
15:39 -9.1 °C -15.9 °C 1034.1 hPa WNW 9.7 km/h 19.3 km/h 58% 0 mm
15:44 -9.2 °C -16 °C 1034.1 hPa WSW 8 km/h 25.7 km/h 58% 0 mm
15:49 -9.3 °C -16.4 °C 1034.1 hPa WNW 16.1 km/h 29 km/h 56% 0 mm
15:54 -9.4 °C -16.6 °C 1034.1 hPa WNW 20.9 km/h 30.6 km/h 56% 0 mm
15:59 -9.6 °C -16.6 °C 1034.1 hPa WNW 12.9 km/h 30.6 km/h 57% 0 mm
16:04 -9.6 °C -16.3 °C 1034.4 hPa WNW 9.7 km/h 17.7 km/h 58% 0 mm
16:09 -9.6 °C -16.3 °C 1034.4 hPa WSW 17.7 km/h 22.5 km/h 58% 0 mm
16:14 -9.6 °C -16.5 °C 1034.4 hPa West 12.9 km/h 25.7 km/h 57% 0 mm
16:19 -9.7 °C -16.6 °C 1034.4 hPa West 11.3 km/h 25.7 km/h 57% 0 mm
16:24 -9.8 °C -16.7 °C 1034.4 hPa WNW 12.9 km/h 25.7 km/h 57% 0 mm
16:29 -9.9 °C -16.6 °C 1034.8 hPa WNW 12.9 km/h 25.7 km/h 58% 0 mm
16:34 -10 °C -16.5 °C 1034.8 hPa WNW 14.5 km/h 25.7 km/h 59% 0 mm
16:39 -10 °C -16.3 °C 1034.8 hPa WNW 12.9 km/h 25.7 km/h 60% 0 mm
16:44 -10.1 °C -15.9 °C 1034.8 hPa WNW 11.3 km/h 24.1 km/h 62% 0 mm
16:49 -10 °C -16.5 °C 1034.8 hPa WNW 9.7 km/h 16.1 km/h 59% 0 mm
16:54 -10 °C -16.7 °C 1035.1 hPa West 8 km/h 20.9 km/h 58% 0 mm
16:59 -10 °C -16.7 °C 1035.1 hPa WNW 14.5 km/h 20.9 km/h 58% 0 mm
17:04 -10.1 °C -16.6 °C 1035.1 hPa WNW 9.7 km/h 20.9 km/h 59% 0 mm
17:09 -10.2 °C -16.7 °C 1035.4 hPa WNW 9.7 km/h 17.7 km/h 59% 0 mm
17:14 -10.3 °C -16.4 °C 1035.1 hPa WNW 12.9 km/h 17.7 km/h 61% 0 mm
17:19 -10.3 °C -16.4 °C 1035.4 hPa West 6.4 km/h 16.1 km/h 61% 0 mm
17:24 -10.3 °C -16.6 °C 1035.4 hPa West 20.9 km/h 22.5 km/h 60% 0 mm
17:29 -10.3 °C -16.8 °C 1035.4 hPa WNW 6.4 km/h 20.9 km/h 59% 0 mm
17:34 -10.3 °C -16.6 °C 1035.4 hPa West 6.4 km/h 14.5 km/h 60% 0 mm
17:39 -10.4 °C -17.1 °C 1035.4 hPa WNW 9.7 km/h 24.1 km/h 58% 0 mm
17:44 -10.4 °C -17.1 °C 1035.8 hPa West 8 km/h 17.7 km/h 58% 0 mm
17:49 -10.4 °C -17.1 °C 1035.8 hPa WNW 8 km/h 17.7 km/h 58% 0 mm
17:54 -10.5 °C -17.2 °C 1035.8 hPa WNW 3.2 km/h 16.1 km/h 58% 0 mm
17:59 -10.6 °C -17.1 °C 1036.1 hPa WSW 4.8 km/h 9.7 km/h 59% 0 mm
18:04 -10.7 °C -17 °C 1036.1 hPa WSW 16.1 km/h 22.5 km/h 60% 0 mm
18:09 -10.7 °C -16.9 °C 1036.1 hPa West 6.4 km/h 17.7 km/h 60% 0 mm
18:14 -10.7 °C -17 °C 1036.1 hPa WNW 8 km/h 17.7 km/h 60% 0 mm
18:19 -10.8 °C -16.9 °C 1036.1 hPa WNW 6.4 km/h 14.5 km/h 61% 0 mm
18:24 -10.8 °C -17.3 °C 1036.1 hPa West 6.4 km/h 11.3 km/h 59% 0 mm
18:29 -10.8 °C -17.3 °C 1036.5 hPa West 4.8 km/h 12.9 km/h 59% 0 mm
18:34 -10.8 °C -17.1 °C 1036.5 hPa SW 6.4 km/h 14.5 km/h 60% 0 mm
18:39 -10.8 °C -17.1 °C 1036.5 hPa WSW 11.3 km/h 19.3 km/h 60% 0 mm
18:44 -10.9 °C -17.2 °C 1036.8 hPa West 9.7 km/h 17.7 km/h 60% 0 mm
18:49 -11 °C -17.1 °C 1036.8 hPa West 4.8 km/h 16.1 km/h 61% 0 mm
18:54 -11.1 °C -16.9 °C 1036.8 hPa West 8 km/h 12.9 km/h 62% 0 mm
18:59 -11 °C -16.8 °C 1036.8 hPa NNW 8 km/h 16.1 km/h 62% 0 mm
19:04 -11 °C -16.8 °C 1036.8 hPa SW 6.4 km/h 17.7 km/h 62% 0 mm
19:09 -11.1 °C -16.8 °C 1036.8 hPa West 8 km/h 17.7 km/h 63% 0 mm
19:14 -11.1 °C -16.7 °C 1037.1 hPa West 3.2 km/h 19.3 km/h 63% 0 mm
19:19 -11 °C -16.5 °C 1037.1 hPa West 6.4 km/h 19.3 km/h 64% 0 mm
19:24 -10.9 °C -16.6 °C 1037.5 hPa West 8 km/h 19.3 km/h 63% 0 mm
19:29 -10.9 °C -16.4 °C 1037.5 hPa West 8 km/h 19.3 km/h 64% 0 mm
19:34 -10.9 °C -16.4 °C 1037.5 hPa West 8 km/h 16.1 km/h 64% 0 mm
19:39 -10.9 °C -16.4 °C 1037.5 hPa West 11.3 km/h 16.1 km/h 64% 0 mm
19:44 -10.9 °C -16.4 °C 1037.5 hPa WSW 8 km/h 17.7 km/h 64% 0 mm
19:49 -10.9 °C -16.2 °C 1037.5 hPa WNW 8 km/h 16.1 km/h 65% 0 mm
19:54 -10.9 °C -16.4 °C 1037.5 hPa West 8 km/h 16.1 km/h 64% 0 mm
19:59 -10.8 °C -16.1 °C 1037.5 hPa WSW 16.1 km/h 19.3 km/h 65% 0 mm
20:04 -10.8 °C -16.1 °C 1037.8 hPa WSW 1.6 km/h 16.1 km/h 65% 0 mm
20:09 -10.8 °C -15.9 °C 1037.8 hPa WSW 8 km/h 14.5 km/h 66% 0 mm
20:14 -10.8 °C -16.1 °C 1037.8 hPa WSW 4.8 km/h 14.5 km/h 65% 0 mm
20:19 -10.8 °C -16.1 °C 1037.8 hPa West 8 km/h 16.1 km/h 65% 0 mm
20:24 -10.7 °C -16.1 °C 1037.8 hPa West 6.4 km/h 17.7 km/h 65% 0 mm
20:29 -10.7 °C -16 °C 1037.8 hPa West 8 km/h 17.7 km/h 65% 0 mm
20:34 -10.7 °C -15.8 °C 1037.8 hPa West 6.4 km/h 12.9 km/h 66% 0 mm
20:39 -10.7 °C -15.8 °C 1037.8 hPa West 8 km/h 22.5 km/h 66% 0 mm
20:44 -10.8 °C -16.1 °C 1037.8 hPa West 8 km/h 22.5 km/h 65% 0 mm
20:49 -10.8 °C -16.1 °C 1037.8 hPa West 8 km/h 22.5 km/h 65% 0 mm
20:54 -10.9 °C -16.1 °C 1037.8 hPa West 8 km/h 22.5 km/h 66% 0 mm
20:59 -11.1 °C -16.2 °C 1038.1 hPa West 6.4 km/h 12.9 km/h 66% 0 mm
21:04 -11.2 °C -16.1 °C 1038.1 hPa West 6.4 km/h 12.9 km/h 67% 0 mm
21:09 -11.2 °C -16.2 °C 1038.1 hPa WSW 6.4 km/h 12.9 km/h 67% 0 mm
21:14 -11.3 °C -16.1 °C 1038.1 hPa WSW 6.4 km/h 16.1 km/h 68% 0 mm
21:19 -11.3 °C -16.1 °C 1038.1 hPa WSW 3.2 km/h 11.3 km/h 68% 0 mm
21:24 -11.3 °C -16 °C 1038.1 hPa West 6.4 km/h 11.3 km/h 68% 0 mm
21:29 -11.3 °C -15.8 °C 1038.1 hPa WSW 4.8 km/h 12.9 km/h 69% 0 mm
21:34 -11.3 °C -15.7 °C 1038.1 hPa WSW 8 km/h 12.9 km/h 70% 0 mm
21:39 -11.1 °C -15.7 °C 1038.1 hPa West 6.4 km/h 17.7 km/h 69% 0 mm
21:44 -11 °C -15.6 °C 1038.1 hPa West 8 km/h 17.7 km/h 69% 0 mm
21:49 -10.9 °C -15.4 °C 1038.1 hPa West 6.4 km/h 14.5 km/h 69% 0 mm
21:54 -10.8 °C -15.4 °C 1038.1 hPa West 6.4 km/h 14.5 km/h 69% 0 mm
21:59 -10.8 °C -15.4 °C 1038.1 hPa West 4.8 km/h 14.5 km/h 69% 0 mm
22:04 -10.7 °C -15.1 °C 1037.8 hPa SW 3.2 km/h 11.3 km/h 70% 0 mm
22:09 -10.7 °C -15.1 °C 1037.8 hPa SW 6.4 km/h 11.3 km/h 70% 0 mm
22:14 -10.6 °C -15 °C 1037.8 hPa West 4.8 km/h 11.3 km/h 70% 0 mm
22:19 -10.6 °C -15 °C 1037.8 hPa WSW 4.8 km/h 11.3 km/h 70% 0 mm
22:24 -10.6 °C -15 °C 1037.8 hPa West 6.4 km/h 12.9 km/h 70% 0 mm
22:29 -10.5 °C -14.9 °C 1037.8 hPa WNW 3.2 km/h 11.3 km/h 70% 0 mm
22:34 -10.4 °C -14.9 °C 1037.8 hPa West 3.2 km/h 12.9 km/h 70% 0 mm
22:39 -10.4 °C -14.7 °C 1037.5 hPa WNW 4.8 km/h 11.3 km/h 71% 0 mm
22:44 -10.3 °C -14.6 °C 1037.5 hPa West 3.2 km/h 9.7 km/h 71% 0 mm
22:49 -10.3 °C -14.6 °C 1037.5 hPa West 4.8 km/h 11.3 km/h 71% 0 mm
22:54 -10.2 °C -14.5 °C 1037.5 hPa West 4.8 km/h 11.3 km/h 71% 0 mm
22:59 -10.1 °C -14.4 °C 1037.5 hPa West 4.8 km/h 9.7 km/h 71% 0 mm
23:04 -10.1 °C -14.3 °C 1037.5 hPa WSW 3.2 km/h 9.7 km/h 71% 0 mm
23:09 -9.9 °C -14.2 °C 1037.5 hPa West 6.4 km/h 9.7 km/h 71% 0 mm
23:14 -9.9 °C -14.2 °C 1037.5 hPa NNW 8 km/h 12.9 km/h 71% 0 mm
23:19 -9.8 °C -13.9 °C 1037.5 hPa West 4.8 km/h 14.5 km/h 72% 0 mm
23:24 -9.8 °C -13.9 °C 1037.5 hPa West 8 km/h 11.3 km/h 72% 0 mm
23:29 -9.8 °C -13.9 °C 1037.5 hPa WNW 4.8 km/h 11.3 km/h 72% 0 mm
23:34 -9.8 °C -13.9 °C 1037.5 hPa WNW 4.8 km/h 8 km/h 72% 0 mm
23:39 -9.8 °C -13.9 °C 1037.5 hPa NW 3.2 km/h 8 km/h 72% 0 mm
23:44 -9.7 °C -13.8 °C 1037.5 hPa WNW 3.2 km/h 8 km/h 72% 0 mm
23:49 -9.7 °C -13.8 °C 1037.5 hPa West 6.4 km/h 8 km/h 72% 0 mm
23:54 -9.6 °C -13.7 °C 1037.1 hPa West 4.8 km/h 8 km/h 72% 0 mm
23:59 -9.5 °C -13.6 °C 1037.1 hPa West 4.8 km/h 9.7 km/h 72% 0 mm
Buffalo, New York, USA
Compliments of Weather Underground - 2.25 mb